Home > Weather > Utsunomiya > Past weeks

Flag for Japan Weather for the Past 2 Weeks in Utsunomiya, Japan

Now
49 °F

Cool.


Feels Like: 48 °F
Forecast: 31 / 60 °F
Wind: 5 mph from Southeast

Location: Mito

Current Time: Feb 12, 2016 at 5:00:08 PM

Latest Report: Feb 12, 2016 at 4:00 PM


Visibility: N/A

Pressure: 30.40 "Hg

Humidity: 58%

Dew point: 35 °F

Location of UtsunomiyaLocation

Historic Weather in Utsunomiya — Graph

°F

Utsunomiya Temperature Yesterday

Maximum temperature yesterday: 47 °F (at 12:00 PM)
Minimum temperature yesterday: 27 °F (at 7:00 AM)
Average temperature yesterday: 37 °F

High & Low Weather Summary for the Past Weeks

 TemperatureHumidityPressure
High55 °F (Jan 28, 3:00 PM)97% (Jan 30, 12:00 AM)30.55 "Hg (Jan 30, 12:00 AM)
Low26 °F (Feb 8, 5:00 AM)19% (Feb 10, 1:00 PM)29.67 "Hg (Feb 9, 3:00 PM)
Average38 °F69%30.13 "Hg
* Reported Jan 28 3:00 PM — Feb 12 3:00 PM, Utsunomiya, Weather by CustomWeather, © 2016

Note: Actual official high and low records may vary slightly from our data, if they occured in-between our weather recording intervals... More about our weather records

Advertising

Utsunomiya Weather History for the Previous 24 Hours

 ConditionsComfort  
Time TempWeatherWind HumidityBarometerVisibility
3:00 PM
Fri, Feb 12
50 °FOvercast.3 mph54%30.41 "Hg9 mi
2:00 PM52 °FCool.2 mph50%30.43 "HgN/A
1:00 PM49 °FCool.3 mph51%30.45 "HgN/A
12:00 PM49 °FCool.5 mph49%30.47 "HgN/A
5:00 AM28 °FChilly.2 mph90%30.54 "HgN/A
4:00 AM28 °FChilly.2 mph89%30.55 "HgN/A
3:00 AM29 °FClear.3 mph89%30.55 "Hg12 mi
2:00 AM30 °FChilly.3 mph86%30.55 "HgN/A
1:00 AM30 °FChilly.5 mph84%30.55 "HgN/A
12:00 AM30 °FChilly.3 mph85%30.55 "HgN/A
11:00 PM
Thu, Feb 11
32 °FChilly.3 mph82%30.55 "HgN/A
10:00 PM33 °FChilly.5 mph81%30.55 "HgN/A
9:00 PM34 °FClear.3 mph84%30.54 "Hg12 mi
8:00 PM38 °FChilly.1 mph67%30.53 "HgN/A
7:00 PM39 °FChilly.2 mph62%30.51 "HgN/A
6:00 PM41 °FQuite cool.5 mph57%30.50 "HgN/A
5:00 PM42 °FQuite cool.7 mph53%30.48 "HgN/A
Weather by CustomWeather, © 2016

See weather overviewHow to use our weather pages